This demonstration page uses our WeatherBlox Daily Observations layout. Learn more.

Left ArrowRight Arrow

38.89511, -77.03637

Hourly Observations for June 23, 2018

Temp ( °F °C ) Dew Point ( °F °C ) Humidity (%) Winds ( mph kmh ) Pressure ( in mb ) Visibility ( mi km ) Precip ( " mm )
12:06 am 00:06 Cloudy 67 19.4 63 17.2 87 87 NE 7 11 29.88 1012 10 16 N/A
12:52 am 00:52 Cloudy 67 19.4 64 17.8 91 91 NNE 7 11 29.87 1012 9 14 N/A
1:16 am 01:16 Cloudy with Drizzle 67 19.4 64 17.8 91 91 NNE 8 13 29.85 1011 3 4 N/A
1:30 am 01:30 Cloudy with Drizzle 67 19.4 64 17.8 91 91 NNE 6 9 29.85 1011 3 5 N/A
1:41 am 01:41 Cloudy with Drizzle 67 19.4 64 17.8 91 91 NE 5 7 29.85 1011 4 6 N/A
1:52 am 01:52 Cloudy with Drizzle 67 19.4 64 17.8 91 91 NNE 6 9 29.86 1011 3 5 N/A
2:06 am 02:06 Cloudy with Drizzle 67 19.4 64 17.8 91 91 N 7 11 29.85 1011 3 4 N/A
2:21 am 02:21 Cloudy with Drizzle 67 19.4 64 17.8 91 91 N 5 7 29.85 1011 3 5 N/A
2:52 am 02:52 Cloudy with Drizzle 67 19.4 65 18.3 93 93 NNE 7 11 29.84 1010 2 3 N/A
3:04 am 03:04 Cloudy with Drizzle 67 19.4 65 18.3 93 93 N 7 11 29.83 1010 3 4 N/A
3:15 am 03:15 Cloudy with Drizzle 67 19.4 65 18.3 93 93 N 6 9 29.83 1010 3 5 N/A
3:31 am 03:31 Cloudy with Drizzle 68 20 65 18.3 90 90 N 6 9 29.83 1010 3 4 N/A
3:47 am 03:47 Cloudy with Drizzle 68 20 64 18 88 88 NE 7 11 29.83 1010 3 5 0.01 0.25
3:52 am 03:52 Cloudy with Drizzle 68 20 65 18.3 90 90 NE 7 11 29.83 1010 4 6 0.01 0.25
4:44 am 04:44 Cloudy 68 20 66 18.9 93 93 NNE 6 9 29.80 1009 10 16 N/A
4:52 am 04:52 Cloudy 68 20 65 18.3 90 90 NNE 6 9 29.81 1010 10 16 N/A
5:12 am 05:12 Cloudy 69 20.6 66 18.9 90 90 N 5 7 29.83 1010 10 16 N/A
5:52 am 05:52 Cloudy 69 20.6 66 18.9 90 90 NNE 7 11 29.81 1010 10 16 N/A
6:44 am 06:44 Cloudy with Drizzle 69 20.6 66 18.9 90 90 NNE 5 7 29.83 1010 3 4 N/A
6:52 am 06:52 Cloudy with Drizzle 69 20.6 67 19.4 93 93 N 5 7 29.82 1010 3 4 N/A
7:38 am 07:38 Cloudy with Drizzle 70 21.1 67 19.4 90 90 NNE 3 6 29.83 1010 2 3 N/A
7:50 am 07:50 Cloudy with Drizzle 70 21 66 19 88 88 NNE 3 6 29.83 1010 2 3 N/A
7:52 am 07:52 Cloudy with Drizzle 70 21.1 68 20 93 93 NNE 3 6 29.84 1010 2 3 N/A
8:02 am 08:02 Cloudy with Drizzle 70 21.1 67 19.4 90 90 NNE 3 6 29.83 1010 3 5 N/A
8:52 am 08:52 Cloudy 71 21.7 68 20 90 90 NNE 6 9 29.84 1010 8 13 N/A
9:52 am 09:52 Cloudy with Drizzle 72 22.2 68 20 87 87 N N/A 29.84 1010 6 10 N/A
10:52 am 10:52 Cloudy with Drizzle 72 22.2 69 20.6 91 91 NNE 3 6 29.84 1011 2 3 N/A
10:55 am 10:55 Cloudy with Drizzle 72 22.2 69 20.6 91 91 N N/A 29.83 1010 2 3 N/A
11:08 am 11:08 Cloudy with Drizzle 73 22.8 69 20.6 87 87 N N/A 29.83 1010 2 3 N/A
11:12 am 11:12 Cloudy with Drizzle 72 22.2 69 20.6 91 91 N N/A 29.83 1010 2 3 N/A
11:17 am 11:17 Cloudy with Drizzle 72 22.2 69 20.6 91 91 N N/A 29.83 1010 3 5 N/A
11:33 am 11:33 Cloudy 74 23.3 70 21.1 88 88 N N/A 29.83 1010 10 16 N/A
11:37 am 11:37 Cloudy 74 23.3 69 20.6 85 85 N N/A 29.83 1010 10 16 N/A
11:52 am 11:52 Cloudy 75 23.9 70 21.1 84 84 N N/A 29.83 1010 10 16 N/A
12:02 pm 12:02 Cloudy 75 23.9 69 20.6 82 82 N N/A 29.83 1010 10 16 N/A
12:21 pm 12:21 Cloudy 75 23.9 70 21.1 84 84 SSE 3 6 29.83 1010 10 16 N/A
12:52 pm 12:52 Cloudy 75 23.9 70 21.1 84 84 S 3 6 29.83 1010 10 16 N/A
12:54 pm 12:54 Cloudy 75 23.9 69 20.6 82 82 S 3 6 29.83 1010 10 16 N/A
1:52 pm 13:52 Cloudy 77 25 70 21.1 79 79 SSE 5 7 29.82 1010 10 16 N/A
2:42 pm 14:42 Cloudy 78 25.6 70 21.1 76 76 SSE 7 11 29.80 1009 10 16 N/A
2:44 pm 14:44 Cloudy 78 25.6 70 21.1 76 76 SSE 8 13 29.80 1009 10 16 N/A
2:46 pm 14:46 Cloudy 79 26 70 21 74 74 SSE 8 13 29.80 1009 10 16 N/A
2:50 pm 14:50 Mostly Cloudy 79 26 70 21 74 74 S 8 13 29.80 1009 10 16 N/A
2:52 pm 14:52 Mostly Cloudy 78 25.6 70 21.1 76 76 S 7 11 29.79 1009 10 16 N/A
3:18 pm 15:18 Mostly Cloudy 78 25.6 69 20.6 74 74 S 6 9 29.80 1009 10 16 N/A
3:46 pm 15:46 Cloudy 79 26 70 21 74 74 S 3 6 29.80 1009 10 16 N/A
3:52 pm 15:52 Cloudy 80 26.7 70 21.1 71 71 VRB 6 9 29.80 1009 10 16 N/A
4:15 pm 16:15 Mostly Cloudy 80 26.7 70 21.1 71 71 SSE 7 11 29.77 1008 10 16 N/A
4:52 pm 16:52 Mostly Cloudy 80 26.7 69 20.6 69 69 S 6 9 29.78 1008 10 16 N/A
5:52 pm 17:52 Sunny 80 26.7 69 20.6 69 69 N N/A 29.78 1008 10 16 N/A
6:52 pm 18:52 Cloudy with Light Rain 79 26.1 70 21.1 74 74 SSE 5 7 29.78 1009 10 16 N/A
7:03 pm 19:03 Mostly Cloudy 79 26.1 70 21.1 74 74 S 6 9 29.80 1009 10 16 N/A
7:26 pm 19:26 Mostly Cloudy with Rain 77 25 71 21.7 82 82 SW 10 17 29.80 1009 8 13 0.02 0.51
7:52 pm 19:52 Mostly Cloudy with Light Rain 76 24.4 72 22.2 88 88 SSW 3 6 29.80 1009 9 14 0.04 1.02
8:17 pm 20:17 Mostly Cloudy 76 24.4 72 22.2 88 88 SSW 5 7 29.80 1009 10 16 0.01 0.25
8:52 pm 20:52 Mostly Cloudy with Light Rain 75 23.9 71 21.7 88 88 S 5 7 29.80 1009 8 13 0.01 0.25
9:28 pm 21:28 Mostly Cloudy 75 23.9 70 21.1 84 84 N N/A 29.80 1009 10 16 N/A
9:52 pm 21:52 Mostly Clear 75 23.9 70 21.1 84 84 N N/A 29.81 1010 10 16 N/A
10:52 pm 22:52 Mostly Clear 74 23.3 71 21.7 91 91 NW 6 9 29.83 1010 10 16 N/A
11:52 pm 23:52 Mostly Clear 73 22.8 70 21.1 90 90 N N/A 29.83 1010 10 16 N/A

Powered by AerisWeather